PAWDPATK

Guest
Details From PAWD - SEWARD
To PATK - TALKEETNA
Flight Number -
Tags generated
Created
Modified
Stats Distance 133 nm / 246 km
Max Altitude 16,000 ft / 4,877 m
Waypoints 3
Social Downloads 1
Likes 0
Share VATSIM

Download

Looking for another format? Having issues loading an existing format? Contact us
Advertisement - Login to hide

Notes

Basic altitude profile: - Ascent Rate: 2500ft/min - Ascent Speed: 250kts - Cruise Altitude: 35000ft - Cruise Speed: 420kts - Descent Rate: 1500ft/min - Descent Speed: 250kts Options: - Use NATs: yes - Use PACOTS: yes - Use low airways: yes - Use high airways: yes

Route

PAWD HOPER PATK

ID Type Via Altitude Latitude Longitude Leg Dist Tot Dist Heading (true) Name
O PAWD APT - 0 ft / 0 m 60.12984˚ -149.41952˚ - 0 nm - SEWARD
HOPER FIX - 16,000 ft / 4,877 m 61.00281˚ -149.73961˚ 53 nm 53 nm 350° / 350° -
O PATK APT - 0 ft / 0 m 62.32051˚ -150.09369˚ 79 nm 133 nm 353° / 353° TALKEETNA

Altitude Profile

Advertisement - Login to hide

PAWD

Details ICAO PAWD
Name SEWARD
Region USA (Alaska)
Timezone America/Anchorage (UTC-8.0)
Stats Elevation 22 ft / 7 m (AMSL)
Location 60.129844° -149.419515°
Runways 2
Magnetic Variation 16.116° E

METAR

PAWD 241153Z AUTO 00000KT 9SM CLR 04/04 A2973 RMK AO2 RAB16E30 SLP066 P0000 60002 70003 T00390039 10078 20039 56004 TSNO

Decode

TAF

Not found

Departure Runways

ID Width Length Bearing (true) Bearing (mag) Surface Threshold Offset Overrun Length
12 100 ft / 30 m 4,228 ft / 1,289 m 143.67° 127.55° Asphalt 0 ft / 0 m 0 ft / 0 m
15 75 ft / 23 m 2,280 ft / 695 m 170.13° 154.01° Asphalt 0 ft / 0 m 0 ft / 0 m
30 100 ft / 30 m 4,228 ft / 1,289 m 323.68° 307.56° Asphalt 0 ft / 0 m 0 ft / 0 m
33 75 ft / 23 m 2,280 ft / 695 m 350.13° 334.01° Asphalt 0 ft / 0 m 0 ft / 0 m

PATK

Details ICAO PATK (TKA)
Name TALKEETNA
Region USA (Alaska)
Timezone America/Anchorage (UTC-8.0)
Stats Elevation 358 ft / 109 m (AMSL)
Location 62.320512° -150.093685°
Runways 1
Magnetic Variation 16.197° E

METAR

PATK 241151Z AUTO 00000KT 10SM FEW002 BKN060 03/02 A2970

Decode

TAF

PATK 241128Z 2412/2512 VRB03KT P6SM SCT050 BKN100 FM242100 22008KT P6SM FEW070 SCT120 FM250600 VRB05KT P6SM FEW150 SCT250

Decode

Destination Runways

ID Width Length Bearing (true) Bearing (mag) Surface Threshold Offset Overrun Length
18 75 ft / 23 m 3,503 ft / 1,068 m 207.01° 190.81° Asphalt 0 ft / 0 m 0 ft / 0 m
36 75 ft / 23 m 3,503 ft / 1,068 m 27.01° 10.81° Asphalt 0 ft / 0 m 0 ft / 0 m

Popular Alternatives